SCP
0 0 0 0 0 0 0 0 0 0 0 0 -0 -0 0 0 0 0 0 0 0 0 0 0 0 0 0 0 0 0 0 0 0 0 0 0 0 0 0 0 0 0 0
0 0 0 0 0 0 0 0 0 0 0 0 -0 -0 0 0 0 0 0 0 0 0 0 0 0 0 0 0 0 0 0 0 0 0 0 0 0 0 0 0 0 0 0
0 0 0 0 0 0 0 0 0 0 0 0 0 0 0 0 0 0 0 0 0 0 0 0 0 0 0 0 0 0 0 0 0 0 0 0 0 0 0 0 0 0 0
0 0 0 0 0 0 0 0 0 0 0 0 0 0 0 0 0 0 0 0 0 0 0 0 0 0 0 0 0 0 0 0 0 0 0 0 0 0 0 0 0 0 0
0 0 0 0 0 0 0 0 0 0 0 0 0 0 0 0 0 0 0 0 0 0 0 0 0 0 0 0 0 0 0 0 0 0 0 0 0 0 0 0 0 0 0
0 0 0 0 0 0 0 0 0 0 0 0 0 0 0 0 0 0 0 0 0 0 0 0 0 0 0 0 0 0 0 0 0 0 0 0 0 0 0 0 0 0 0
0 0 0 0 0 0 0 0 0 0 0 0 0 0 0 0 0 0 0 0 0 0 0 0 0 0 0 0 0 0 0 0 0 0 0 0 0 0 0 0 0 0 0
0 0 0 0 0 0 0 0 0 0 0 0 0 0 0 0 0 0 0 0 0 0 0 0 0 0 0 0 0 0 0 0 0 0 0 0 0 0 0 0 0 0 0
0 0 0 0 0 0 0 0 0 0 0 0 0 0 0 0 0 0 0 0 0 0 0 0 0 0 0 0 0 0 0 0 0 0 0 0 0 0 0 0 0 0 0
0 0 0 0 0 0 0 0 0 0 0 0 0 0 0 0 0 0 0 0 0 0 0 0 0 0 0 0 0 0 0 0 0 0 0 0 0 0 0 0 0 0 0
0 0 0 0 0 0 0 0 0 0 0 0 0 0 0 0 0 0 0 0 0 0 0 0 0 0 0 0 0 0 0 0 0 0 0 0 0 0 0 0 0 0 0
0 0 0 0 0 0 0 0 0 0 0 0 0 0 0 0 0 0 0 0 0 0 0 0 0 0 0 0 0 0 0 0 0 0 0 0 0 0 0 0 0 0 0
0 0 0 0 0 0 0 0 0 0 0 0 0 0 0 0 0 0 0 0 0 0 0 0 0 0 0 0 0 0 0 0 0 0 0 0 0 0 0 0 0 0 0
0 0 0 0 0 0 0 0 0 0 0 0 0 0 0 0 0 0 0 0 0 0 0 0 0 0 0 0 0 0 0 0 0 0 0 0 -0 -0 -0 -0 0 0 0
0 0 0 0 0 0 0 0 0 0 0 0 0 0 0 0 0 0 0 0 0 0 0 0 0 0 0 0 0 0 0 0 0 0 0 -0 -0 -0 -0 -0 0 0 0
0 0 0 0 0 0 0 0 0 0 0 0 0 0 0 0 0 0 0 0 0 0 0 0 0 0 0 0 0 0 0 0 0 0 0 -0 -0 -0 -0 -0 -0 -0 -0
0 0 0 0 0 0 0 0 0 0 0 0 0 0 0 0 0 0 0 0 0 0 0 0 0 0 0 0 0 0 0 0 0 0 -0 -0 -0 0 0 -0 0 0 0
0 0 0 0 0 0 0 0 0 0 0 0 0 0 0 0 0 0 0 0 0 0 0 0 0 0 0 0 0 0 0 0 0 0 -0 -0 -0 0 0 0 0 0 0
0 0 0 0 0 0 0 0 0 0 0 0 0 0 0 0 0 0 0 0 0 0 0 0 0 0 0 0 0 0 0 0 0 0 0 0 0 0 0 0 0 0 0
0 0 0 0 0 0 0 0 0 0 0 0 0 0 0 0 0 0 0 0 0 0 0 0 0 0 0 0 0 0 0 0 0 0 0 0 0 0 0 0 0 0 0
0 0 0 0 0 0 0 0 0 0 0 0 0 0 0 0 0 0 0 0 0 0 0 0 0 0 0 0 0 0 0 0 0 0 0 0 0 0 0 0 0 0 0
0 0 0 0 0 0 0 0 0 0 0 0 0 0 0 0 0 0 0 0 0 0 0 0 0 0 0 0 0 0 0 0 0 0 0 0 0 0 0 0 0 0 0
0 0 0 0 0 0 0 0 0 0 0 0 0 0 0 0 0 0 0 0 0 0 0 0 0 0 0 0 0 0 0 0 0 0 0 0 0 0 0 0 0 0 0
0 0 0 0 0 0 0 0 0 0 0 0 0 0 0 0 0 0 0 0 0 0 0 0 0 0 0 0 0 0 0 0 0 0 0 0 0 0 0 0 0 0 0
0 0 0 0 0 0 0 0 0 0 0 0 0 0 0 0 0 0 0 0 0 0 0 0 0 0 0 0 0 0 0 0 0 0 0 0 0 0 0 0 0 0 0
0 0 0 0 0 0 0 0 0 0 0 0 0 0 0 0 0 0 0 0 0 0 0 0 0 0 0 0 0 0 0 0 0 0 0 0 0 0 0 0 0 0 0
Wind_Speed
8 7 6 5 4 4 6 7 5 4 4 2 2 2 2 3 3 4 5 4 4 4 4 3 4 4 4 3 4 3 3 2 2 3 3 4 4 5 4 4 4 5 5
9 8 7 5 4 4 5 6 5 5 5 2 2 2 2 3 3 3 4 4 5 5 4 4 3 4 3 4 4 3 2 1 1 2 2 2 3 4 4 4 4 5 4
10 10 8 6 4 4 4 5 5 6 5 4 3 3 3 2 3 3 3 4 4 5 5 4 3 3 3 3 2 2 2 1 1 2 2 2 2 1 3 4 4 4 4
10 9 8 7 6 5 5 5 5 6 5 4 3 2 2 2 3 2 2 3 4 4 4 4 4 3 3 3 2 3 1 2 1 1 2 2 3 2 1 2 3 4 4
10 10 9 7 7 5 5 4 5 5 5 4 4 2 2 3 3 3 3 3 3 3 3 3 3 3 3 3 4 3 3 2 2 1 1 2 1 2 3 2 1 2 3
10 10 9 7 6 6 5 4 5 5 4 4 4 3 3 3 3 3 2 2 2 2 3 3 3 4 3 4 3 3 3 3 3 2 2 2 2 1 2 2 1 2 1
10 10 9 8 7 7 6 5 6 5 4 4 4 4 4 4 3 2 2 2 2 2 2 3 3 3 3 4 3 3 3 3 3 4 3 3 3 2 2 3 2 1 1
10 9 10 9 8 8 7 7 7 6 5 4 4 4 5 3 2 2 2 2 2 2 3 3 4 4 3 4 3 3 3 3 4 4 4 3 3 3 2 2 2 2 1
10 9 9 9 9 9 8 7 7 6 6 4 4 4 5 3 3 2 3 2 2 3 3 3 3 3 3 3 3 3 3 3 3 3 3 3 2 3 3 2 2 2 2
10 10 9 9 9 9 8 7 7 7 6 5 4 3 4 4 3 3 3 3 3 3 2 3 3 3 3 3 4 3 2 4 3 3 4 3 2 3 2 2 2 2 2
10 9 8 8 8 8 8 8 7 7 6 6 5 4 4 4 4 3 3 3 3 3 2 2 3 3 3 3 2 2 2 2 2 3 4 4 3 2 2 2 2 2 3
9 9 9 8 8 9 9 8 7 7 6 5 5 5 5 4 4 4 4 3 3 2 2 2 2 3 3 3 3 2 2 2 3 3 4 3 3 3 3 2 2 2 2
9 9 9 8 8 8 8 8 7 7 7 6 5 5 5 5 4 4 4 3 3 3 2 3 3 3 3 3 3 2 1 2 2 3 3 3 3 2 2 2 2 2 2
8 8 8 8 8 8 8 8 8 7 7 6 6 5 5 5 5 4 4 3 3 3 3 3 3 3 3 3 2 2 2 2 3 3 3 3 3 3 2 2 2 2 2
8 8 8 8 8 8 7 8 8 7 7 7 6 5 5 5 5 5 4 3 3 3 3 3 3 3 3 3 3 2 2 2 2 3 4 4 6 7 4 3 2 2 1
6 7 8 8 8 9 8 7 8 8 8 8 7 5 5 5 5 5 4 4 3 3 3 3 3 3 3 4 5 3 2 1 2 2 3 4 5 6 6 6 5 3 2
5 6 7 7 7 7 8 8 8 8 8 8 7 6 6 6 6 6 5 5 4 3 3 3 4 4 3 4 3 3 2 1 1 1 2 2 4 4 3 3 3 3 2
4 4 5 6 6 7 7 8 7 8 8 7 7 7 6 6 5 5 5 5 4 4 3 3 4 4 4 4 2 0 1 1 0 1 2 3 3 2 2 2 1 1 1
3 3 4 4 5 5 6 7 7 7 7 7 7 7 7 7 6 6 6 4 4 4 4 4 4 4 4 5 4 2 1 1 1 1 1 2 3 3 3 2 1 0 1
3 3 3 3 4 4 5 6 6 7 7 7 7 7 7 7 6 6 5 4 4 4 4 4 4 4 4 6 6 5 1 1 1 1 1 2 2 3 4 2 1 1 2
4 4 4 3 3 3 4 4 4 5 5 6 6 7 7 7 6 5 4 5 4 4 4 4 4 4 5 7 8 7 3 2 2 1 1 1 4 4 5 4 2 3 2
5 5 5 4 3 3 4 3 3 3 4 5 5 5 6 6 6 5 5 5 5 4 4 3 3 3 4 5 7 9 7 4 2 2 2 2 4 5 6 4 4 4 2
5 4 5 4 3 3 3 3 3 3 4 5 5 5 5 4 5 5 5 4 3 3 3 3 3 2 2 3 7 9 9 7 3 2 2 3 4 4 4 5 5 4 2
5 4 4 4 3 3 3 3 3 3 5 5 5 4 4 4 4 3 4 3 3 3 3 3 2 2 2 2 2 3 4 5 4 3 3 4 3 3 3 3 4 3 3
4 4 3 3 4 4 4 3 2 3 4 5 5 4 4 4 4 3 3 3 2 3 3 3 2 3 3 3 5 4 3 3 4 2 2 2 1 2 3 3 3 3 3
4 4 4 4 4 4 4 3 3 3 4 3 3 3 3 3 3 3 2 2 2 3 4 3 2 1 2 1 3 4 4 4 4 3 3 3 4 4 4 4 4 4 5
Wind_Direction
162 142 137 133 133 134 126 126 135 119 99 76 75 80 74 67 57 56 44 27 27 38 51 49 52 56 61 67 77 74 75 70 91 89 73 52 52 64 53 45 48 51 50
156 148 150 142 150 142 124 130 125 114 101 84 89 91 85 87 84 62 48 35 32 28 44 55 67 67 63 62 69 73 65 56 61 91 106 93 36 33 47 52 52 51 42
162 158 156 154 162 147 136 130 126 118 107 102 73 72 65 61 81 78 57 41 45 34 25 40 61 81 87 78 76 86 76 58 24 54 86 109 105 68 18 47 59 54 44
162 157 158 162 163 153 142 131 125 118 114 112 98 110 116 100 95 97 98 77 60 49 27 30 44 63 75 79 69 83 66 73 49 19 29 84 131 130 102 28 49 57 52
161 160 162 162 156 145 135 134 123 111 112 117 112 95 86 92 91 89 95 93 76 66 47 38 43 61 71 68 62 59 43 53 64 55 38 42 53 88 117 110 53 48 45
163 159 158 153 143 135 135 130 121 114 118 126 127 121 106 98 100 99 97 102 99 69 62 55 51 53 63 59 59 71 56 52 51 48 52 59 66 76 93 113 116 90 55
163 161 158 155 148 146 148 141 135 138 149 151 145 141 133 134 130 128 120 109 106 93 73 66 63 58 60 60 50 60 76 69 60 58 49 44 51 64 79 102 110 105 104
164 163 162 159 157 159 159 156 153 154 162 175 164 155 146 145 136 138 130 115 106 111 103 80 75 66 65 65 50 47 47 66 69 66 58 51 44 55 74 100 109 89 61
164 165 162 161 162 162 164 161 160 162 171 178 159 148 143 144 142 148 124 114 110 107 105 105 99 84 70 67 63 58 51 49 55 66 69 68 53 47 47 58 94 123 117
167 166 162 163 164 165 167 166 167 166 167 173 163 151 143 143 135 129 120 116 110 104 118 132 126 115 96 75 64 59 63 75 62 59 61 58 59 51 44 41 35 57 108
163 161 159 164 162 161 166 170 169 167 169 175 162 153 149 143 134 132 128 129 126 134 141 118 112 113 109 99 87 82 74 89 89 84 77 61 56 56 40 43 44 42 81
160 159 157 158 162 166 172 174 173 172 169 170 163 158 150 150 152 150 151 145 135 135 128 107 96 96 101 103 97 78 67 79 82 87 91 80 68 57 43 45 44 40 65
162 161 158 162 167 170 173 172 171 170 164 165 164 160 162 166 163 156 150 146 139 141 133 118 105 92 90 90 94 99 90 91 88 85 96 104 94 76 56 53 48 36 52
164 164 163 166 169 173 176 174 171 167 161 162 167 171 170 164 160 153 145 150 141 141 131 117 110 102 90 79 80 88 83 86 93 92 83 79 82 78 69 67 54 53 54
162 163 165 169 170 173 177 174 168 167 164 163 169 173 166 156 149 143 148 147 138 140 131 119 112 105 98 65 49 50 73 86 93 90 87 81 80 71 61 59 48 50 48
156 159 165 170 174 176 175 171 168 168 164 165 169 168 166 151 149 150 152 145 142 138 123 124 119 108 95 84 62 39 13 68 98 112 120 114 96 80 72 63 63 69 69
150 162 168 172 176 177 173 172 171 168 167 168 167 167 164 152 156 157 152 150 155 146 136 139 132 128 123 115 88 35 354 337 123 136 139 123 116 116 106 74 51 35 24
145 159 166 164 169 172 166 164 161 166 168 167 167 165 161 155 155 152 153 160 157 150 159 162 149 139 143 146 137 93 300 313 18 108 128 130 136 135 131 142 105 19 347
141 150 156 155 159 161 158 156 161 165 163 164 167 163 158 156 158 160 162 164 158 159 172 174 163 158 161 169 165 148 233 263 260 204 134 136 143 145 131 133 154 246 293
123 126 129 137 145 147 149 152 163 164 165 165 165 160 157 157 163 167 166 159 158 166 172 178 178 174 171 178 179 177 191 233 243 222 160 136 148 152 152 166 194 230 246
111 110 104 97 95 117 130 144 153 160 159 153 153 153 156 160 163 162 158 156 162 171 181 182 187 181 176 180 186 186 193 215 229 217 199 191 182 185 192 194 203 225 242
111 113 110 103 90 97 116 124 122 133 130 133 138 144 152 158 158 156 161 164 166 177 185 191 196 191 184 178 193 197 205 218 229 232 213 208 204 205 210 212 231 243 266
119 112 111 109 101 98 105 121 119 122 125 128 134 139 143 146 150 155 159 160 165 180 189 189 196 198 178 181 191 203 213 225 232 256 261 245 223 212 216 225 231 233 235
111 111 114 112 107 105 103 109 123 140 134 135 142 146 149 147 142 141 153 160 175 183 186 191 197 193 183 181 185 198 210 222 237 257 271 264 236 218 228 229 233 227 226
113 116 119 115 112 103 99 102 112 127 128 136 142 143 139 140 138 138 147 160 179 179 182 193 188 184 204 208 184 178 194 203 213 213 215 222 222 229 237 235 231 224 229
112 109 105 105 103 102 98 92 94 112 121 125 125 125 131 134 134 132 119 97 135 162 165 160 160 165 164 173 182 192 200 207 204 191 218 226 226 228 232 235 237 230 230